[[{"header":{"parameterUnit":"m.s-1","parameterCategory":1,"la1":30.2992,"la2":30.254,"lo1":-89.0895,"lo2":-89.0443,"dy":0.0025,"dx":0.0025,"nx":19,"ny":19,"refTime":"2026-03-14T09:00:00:Z","depth":0,"parameterNumber":2,"parameterNumberName":"U-component_of_WINDS"},"data":[0,0,0,0.5274,0.5274,0.5307,0.5307,0.5337,0.5337,0,0,0,0,0,0,0,0,0,0,0,0.5258,0.5258,0.5274,0.5274,0.5307,0.5307,0.5337,0.5337,0,0,0,0,0,0,0,0,0,0,0,0.5258,0.5258,0.5258,0.5274,0.5307,0.5307,0.5337,0.5316,0,0,0,0,0,0,0,0,0,0,0.5287,0.5266,0.5258,0.5258,0.5275,0.5307,0.5307,0.5315,0.5317,0.5317,0,0.5316,0,0.5327,0.5338,0.5338,0,0,0,0.5279,0.5264,0.5278,0.5258,0.5275,0.5306,0.5293,0.5317,0.5319,0.532,0.5316,0.5317,0.5327,0.5338,0.5338,0.532,0.532,0,0,0.5277,0.526,0.5277,0.528,0.5274,0.5292,0.5294,0.5318,0.5313,0.5316,0.5318,0.5328,0.5338,0.5338,0.5321,0.532,0,0,0,0.5269,0.5258,0.5273,0.5278,0.5285,0.5293,0.5296,0.5312,0.5318,0.5319,0.5328,0.5338,0.5339,0.5321,0.532,0.5287,0,0,0,0.5268,0.5254,0.5272,0.5261,0.5284,0.5299,0.5288,0.5316,0.532,0.5328,0.5338,0.5339,0.5321,0.5321,0.5289,0.5274,0,0,0,0.5258,0.5253,0.5255,0.526,0.5274,0.5299,0.5307,0.5317,0.5325,0.5338,0.5339,0.5322,0.5321,0.5291,0.5277,0.5264,0,0,0,0.5242,0.5226,0.5254,0.524,0.5273,0.5278,0.5307,0.5311,0.5319,0.5339,0.5321,0.5321,0.5291,0.5279,0.5265,0.5249,0.524,0,0,0.5212,0.5222,0.5214,0.5241,0.5236,0.5275,0.5266,0.5289,0.5307,0.5315,0.5314,0.5288,0.5277,0.5264,0.5202,0.5195,0,0,0,0.5199,0.5193,0.5196,0.5202,0.522,0.5233,0.526,0.5269,0.5276,0.5307,0.5281,0.5275,0.5268,0.5261,0.5255,0.5249,0.5317,0.5317,0.5317,0.5131,0.5154,0.5143,0.517,0.5175,0.5203,0.5209,0.5225,0.5247,0.524,0.5243,0.5202,0.5193,0.5189,0.5183,0.5237,0.5236,0.5236,0.5236,0.5089,0.5084,0.5113,0.5113,0.5136,0.5137,0.5162,0.5177,0.518,0.5203,0.5197,0.5219,0.5181,0.5177,0.5234,0.5234,0.5235,0.5235,0.5235,0.5046,0.5047,0.5058,0.5069,0.5074,0.5102,0.5103,0.5125,0.5146,0.5141,0.5144,0.5145,0.5147,0.5141,0.5141,0.5141,0.5141,0.5141,0.514,0.4997,0.501,0.5008,0.5025,0.5031,0.5042,0.5069,0.5076,0.5088,0.5104,0.5104,0.5126,0.5173,0.5184,0.5138,0.5139,0.5139,0.5139,0.5139,0.4943,0.4959,0.4956,0.4962,0.4983,0.4986,0.5014,0.5026,0.5034,0.5034,0.5057,0.5088,0.51,0.5105,0.5114,0.5053,0.5053,0.5053,0.5053,0.4906,0.4915,0.4916,0.4924,0.4935,0.496,0.4955,0.4975,0.4999,0.5005,0.5017,0.5032,0.5035,0.5045,0.5051,0.5059,0.4986,0.4986,0.4986,0.4874,0.4884,0.4876,0.4899,0.4917,0.4931,0.4927,0.4934,0.4964,0.4983,0.501,0.5013,0.5036,0.5043,0.5062,0.5071,0.5087,0,0]},{"header":{"parameterUnit":"m.s-1","parameterCategory":1,"la1":30.2992,"la2":30.254,"lo1":-89.0895,"lo2":-89.0443,"dy":0.0025,"dx":0.0025,"nx":19,"ny":19,"refTime":"2026-03-14T09:00:00:Z","depth":0,"parameterNumber":3,"parameterNumberName":"V-component_of_WINDS"},"data":[0,0,0,4.7022,4.7025,4.7144,4.7145,4.7278,4.7279,0,0,0,0,0,0,0,0,0,0,0,4.6975,4.6975,4.7022,4.7025,4.7144,4.7145,4.7277,4.7279,0,0,0,0,0,0,0,0,0,0,0,4.6975,4.6975,4.6976,4.7025,4.7144,4.7145,4.7277,4.7194,0,0,0,0,0,0,0,0,0,0,4.7082,4.7026,4.6975,4.6976,4.7026,4.7144,4.7145,4.719,4.7199,4.7215,0,4.7226,0,4.7254,4.7286,4.7287,0,0,0,4.7034,4.7018,4.7062,4.6976,4.7027,4.7143,4.7093,4.7196,4.7206,4.7227,4.7228,4.7233,4.7256,4.7287,4.7287,4.735,4.735,0,0,4.7027,4.699,4.7055,4.7067,4.7048,4.7089,4.7096,4.7202,4.7201,4.7228,4.7237,4.7259,4.7288,4.7289,4.735,4.735,0,0,0,4.7002,4.6985,4.7026,4.7061,4.7084,4.7092,4.7101,4.7196,4.7213,4.7238,4.726,4.7288,4.729,4.735,4.735,4.7308,0,0,0,4.6999,4.697,4.7022,4.7001,4.7082,4.7142,4.7092,4.7205,4.7218,4.7259,4.7288,4.7291,4.735,4.735,4.7309,4.7294,0,0,0,4.6971,4.6967,4.698,4.6998,4.7048,4.7141,4.7164,4.7209,4.7231,4.7287,4.7291,4.735,4.735,4.7311,4.7296,4.73,0,0,0,4.6931,4.694,4.6979,4.6998,4.7047,4.7114,4.7164,4.7215,4.7257,4.7289,4.735,4.735,4.7311,4.7298,4.7301,4.7297,4.7291,0,0,4.6921,4.6937,4.6951,4.699,4.704,4.7099,4.7143,4.7217,4.7256,4.7316,4.7319,4.7309,4.7296,4.73,4.7273,4.7268,0,0,0,4.6935,4.6945,4.6967,4.7006,4.7063,4.7112,4.7183,4.7211,4.7265,4.7279,4.7312,4.7306,4.731,4.731,4.7306,4.7312,4.7348,4.7348,4.7348,4.6867,4.6918,4.6945,4.7011,4.7049,4.7124,4.7159,4.721,4.7249,4.7256,4.7274,4.7251,4.7249,4.7247,4.7253,4.7275,4.7275,4.7275,4.7275,4.6858,4.688,4.6934,4.698,4.7034,4.7074,4.7147,4.7174,4.7219,4.7241,4.7247,4.7267,4.724,4.7248,4.7272,4.7273,4.7273,4.7273,4.7274,4.6819,4.6838,4.6873,4.6937,4.698,4.7047,4.7088,4.7136,4.7181,4.7187,4.7212,4.7213,4.722,4.7196,4.7196,4.7195,4.7195,4.7195,4.7195,4.6764,4.6805,4.6834,4.6897,4.693,4.6979,4.7056,4.709,4.7139,4.7171,4.7171,4.7211,4.7228,4.7231,4.7194,4.7195,4.7195,4.7195,4.7195,4.6736,4.6751,4.6795,4.6828,4.6908,4.6949,4.701,4.7075,4.711,4.7129,4.7168,4.7172,4.7192,4.7195,4.7199,4.7156,4.7156,4.7156,4.7156,4.6703,4.6719,4.6776,4.6826,4.688,4.6941,4.6991,4.7052,4.7116,4.7141,4.7155,4.7163,4.7165,4.7184,4.7187,4.7191,4.7147,4.7147,4.7147,4.669,4.6713,4.6745,4.681,4.6877,4.6933,4.6982,4.7037,4.7114,4.7148,4.7162,4.7163,4.7177,4.7179,4.7212,4.7217,4.7225,0,0]}]]